Weather History for Pensacola NAS, FL

Change the Weather History Date:

Wednesday, September 12, 2012

  Actual Average Record
Temperature  
Mean Temperature 78 °F -  
Max Temperature 82 °F 85 °F 95 °F (2010)
Min Temperature 73 °F 70 °F 63 °F (2011)
Cooling Degree Days 12    
Growing Degree Days 28 (Base 50)    
Moisture  
Dew Point 70 °F    
Average Humidity 78    
Maximum Humidity 91    
Minimum Humidity 64    
Precipitation  
Precipitation 0.00 in - - ()
Sea Level Pressure  
Sea Level Pressure 30.13 in    
Wind  
Wind Speed 10 mph (ENE)    
Max Wind Speed 18 mph    
Max Gust Speed 23 mph    
Visibility 10 miles    
Events      
Averages and records for this station are not official NWS values.
T = Trace of Precipitation, MM = Missing Value Source: NWS Daily Summary

Daily Weather History Graph

Daily Weather History Graph

Search for Another Location

Airport:

Trip Planner

Search our weather history database for the weather conditions in past years. The results will help you decide how hot, cold, wet, or windy it might be!

Date:

Astronomy

Sep. 12, 2012 Rise Set
Actual Time 6:32 AM CDT 6:57 PM CDT
Civil Twilight 6:08 AM CDT 7:21 PM CDT
Nautical Twilight 5:39 AM CDT 7:50 PM CDT
Astronomical Twilight 5:11 AM CDT 8:18 PM CDT
Moon 3:01 AM CDT (9/12) 4:35 PM CDT (9/12)
Length of Visible Light 13h 13m
Length of Day
12h 25m
Waning Crescent, 13% of the Moon is Illuminated
Sep 12
Waning Crescent
Sep 15
New
Sep 22
First Quarter
Sep 29
Full
Oct 8
Last Quarter

Hourly Weather History & Observations

Time (CDT) Temp. Heat Index Dew Point Humidity Pressure Visibility Wind Dir Wind Speed Gust Speed Precip Events Conditions
12:56 AM 75.0 °F - 66.9 °F 76% 30.11 in 10.0 mi ENE 6.9 mph - N/A   Clear
1:56 AM 75.9 °F - 71.1 °F 85% 30.11 in 10.0 mi ENE 6.9 mph - N/A   Scattered Clouds
2:56 AM 73.0 °F - 69.1 °F 87% 30.10 in 10.0 mi NNE 5.8 mph - N/A   Clear
3:56 AM 73.0 °F - 68.0 °F 84% 30.09 in 10.0 mi ENE 6.9 mph - N/A   Clear
4:56 AM 75.0 °F - 70.0 °F 84% 30.09 in 10.0 mi East 13.8 mph - N/A   Partly Cloudy
5:56 AM 73.9 °F - 71.1 °F 91% 30.11 in 10.0 mi East 11.5 mph - N/A   Mostly Cloudy
6:56 AM 73.9 °F - 71.1 °F 91% 30.13 in 10.0 mi ENE 10.4 mph - N/A   Mostly Cloudy
7:56 AM 77.0 °F - 71.1 °F 82% 30.15 in 10.0 mi East 12.7 mph 20.7 mph N/A   Mostly Cloudy
8:28 AM 75.2 °F - 71.6 °F 89% 30.15 in 10.0 mi East 15.0 mph 20.7 mph N/A   Mostly Cloudy
8:56 AM 77.0 °F - 71.1 °F 82% 30.16 in 10.0 mi East 15.0 mph - N/A   Mostly Cloudy
9:14 AM 77.0 °F - 71.6 °F 83% 30.16 in 10.0 mi East 15.0 mph 21.9 mph N/A   Mostly Cloudy
9:56 AM 75.9 °F - 70.0 °F 82% 30.18 in 10.0 mi East 18.4 mph 23.0 mph N/A   Mostly Cloudy
10:56 AM 77.0 °F - 71.1 °F 82% 30.19 in 10.0 mi East 15.0 mph - N/A   Mostly Cloudy
11:56 AM 79.0 °F - 71.1 °F 77% 30.19 in 10.0 mi East 13.8 mph 23.0 mph N/A   Mostly Cloudy
12:56 PM 80.1 °F 83.6 °F 71.1 °F 74% 30.17 in 10.0 mi East 15.0 mph 20.7 mph N/A   Mostly Cloudy
1:56 PM 80.1 °F 83.2 °F 70.0 °F 71% 30.15 in 10.0 mi East 15.0 mph - N/A   Mostly Cloudy
2:56 PM 80.1 °F 83.6 °F 71.1 °F 74% 30.13 in 10.0 mi ESE 10.4 mph - N/A   Mostly Cloudy
3:56 PM 82.0 °F 86.3 °F 71.1 °F 69% 30.11 in 10.0 mi ESE 9.2 mph - N/A   Mostly Cloudy
4:56 PM 82.9 °F 87.5 °F 71.1 °F 67% 30.11 in 10.0 mi ESE 10.4 mph - N/A   Mostly Cloudy
5:56 PM 82.0 °F 86.3 °F 71.1 °F 69% 30.10 in 10.0 mi East 8.1 mph - N/A   Mostly Cloudy
6:56 PM 79.0 °F - 66.0 °F 64% 30.10 in 10.0 mi East 8.1 mph - N/A   Scattered Clouds
7:56 PM 77.0 °F - 66.0 °F 69% 30.11 in 10.0 mi NE 6.9 mph - N/A   Scattered Clouds
8:56 PM 75.9 °F - 64.9 °F 69% 30.12 in 10.0 mi NE 6.9 mph - N/A   Partly Cloudy
9:56 PM 77.0 °F - 66.0 °F 69% 30.14 in 10.0 mi ENE 10.4 mph - N/A   Partly Cloudy
10:56 PM 75.9 °F - 66.9 °F 74% 30.14 in 10.0 mi ENE 6.9 mph - N/A   Partly Cloudy
11:56 PM 75.0 °F - 66.9 °F 76% 30.14 in 10.0 mi ENE 8.1 mph - N/A   Clear